AirNav   ATP
 
 331 users online  

0R5 David G Joyce Airport
Winnfield, Louisiana, USA

GOING TO WINNFIELD?


FAA INFORMATION EFFECTIVE 06 DECEMBER 2018

Location

FAA Identifier: 0R5
Lat/Long: 31-57-49.1840N / 092-39-36.9380W
31-57.819733N / 092-39.615633W
31.9636622 / -92.6602606
(estimated)
Elevation: 146 ft. / 44.5 m (surveyed)
Variation: 02E (2010)
From city: 3 miles NW of WINNFIELD, LA
Time zone: UTC -6 (UTC -5 during Daylight Saving Time)
Zip code: 71483

Airport Operations

Airport use: Open to the public
Activation date: 09/1945
Control tower: no
ARTCC: HOUSTON CENTER
FSS: DE RIDDER FLIGHT SERVICE STATION
NOTAMs facility: DRI (NOTAM-D service available)
Attendance: UNATNDD
Wind indicator: lighted
Segmented circle: no
Lights: DUSK-DAWN. MIRL RY 09/27 & REIL RYS 09 & 27 PRESET LOW INTST DUSK-DAWN; TO INCR INTST ACTVT - CTAF.
Beacon: white-green (lighted land airport)
ROTG BCN OBSCURED BY TREES SOUTH, WEST AND EAST. Operates sunset to sunrise.

Airport Communications

CTAF/UNICOM: 122.7
POLK APPROACH: 125.4
POLK DEPARTURE: 125.4

Nearby radio navigation aids

VOR radial/distance  VOR name  Freq  Var
SWBr122/1.0SAWMILL VOR/DME113.7502E

 
NDB name  Hdg/Dist  Freq  Var  ID
NATCHITOCHES045/28.140704EOOC --- --- -.-.
RUSTON182/38.936803EROQ .-. --- --.-

Airport Services

Parking: tiedowns
Airframe service: NONE
Powerplant service: NONE
Bottled oxygen: NONE
Bulk oxygen: NONE

Runway Information

Runway 9/27

Dimensions: 3002 x 100 ft. / 915 x 30 m
Surface: asphalt, in excellent condition
Weight bearing capacity: 
Single wheel: 4.0
Runway edge lights: medium intensity
RUNWAY 9  RUNWAY 27
Latitude: 31-57.817883N31-57.823033N
Longitude: 092-39.906417W092-39.325583W
Elevation: 146.0 ft.118.0 ft.
Gradient: 0.9%0.9%
Traffic pattern: leftleft
Runway heading: 087 magnetic, 089 true267 magnetic, 269 true
Markings: nonprecision, in good conditionnonprecision, in good condition
Visual slope indicator: 2-light PAPI on left (3.00 degrees glide path)2-light PAPI on left (3.45 degrees glide path)
Runway end identifier lights: yesyes
Touchdown point: yes, no lightsyes, no lights
Obstructions: 74 ft. trees, 1775 ft. from runway, 434 ft. left of centerline, 21:1 slope to clear69 ft. trees, 938 ft. from runway, 238 ft. right of centerline, 10:1 slope to clear

Airport Ownership and Management from official FAA records

Ownership: Publicly-owned
Owner: CITY OF WINNFIELD
PO BOX 509
WINNFIELD, LA 71483
Phone 318-628-3939
Manager: AUNDRA BASS
PO BOX 509
WINNFIELD, LA 71483
Phone (318) 628-3939

Airport Operational Statistics

Aircraft based on the field: 4
Single engine airplanes: 4
    
Aircraft operations: avg 86/week *
56% transient general aviation
44% local general aviation
* for 12-month period ending 03 November 2017

Instrument Procedures

NOTE: All procedures below are presented as PDF files. If you need a reader for these files, you should download the free Adobe Reader.

NOT FOR NAVIGATION. Please procure official charts for flight.
FAA instrument procedures published for use from 6 December 2018 at 0901Z to 3 January 2019 at 0900Z.

 
IAPs - Instrument Approach Procedures
RNAV (GPS) RWY 09   download (155KB)
RNAV (GPS) RWY 27   download (164KB)
NOTE: Special Take-Off Minimums/Departure Procedures apply   download (116KB)

Other nearby airports with instrument procedures:

F88 - Jonesboro Airport (15 nm N)
KIER - Natchitoches Regional Airport (26 nm SW)
KRSN - Ruston Regional Airport (33 nm N)
KAEX - Alexandria International Airport (39 nm S)
KESF - Esler Regional Airport (39 nm SE)
 
Loc | Ops | Rwys | IFR | FBO | Links
Com | Nav | Svcs | Stats | Notes


 
Area around 0R5 (David G Joyce Airport)
 
Road maps at: MapQuest Bing Google
 
Aerial photo
WARNING: Photo may not be current or correct
Aerial photo of 0R5 (David G Joyce Airport)
Photo by Gene Greenlees, MD
Taken in June 2010

Do you have a better or more recent aerial photo of David G Joyce Airport that you would like to share? If so, please send us your photo.

 
Sectional chart

 
Airport distance calculator
Flying to David G Joyce Airport? Find the distance to fly.

From to 0R5

Sunrise and sunset
Times for 19-Dec-2018
 Local
(UTC-6)
 Zulu
(UTC)
Morning civil twilight06:4012:40
Sunrise07:0713:07
Sunset17:0823:08
Evening civil twilight17:3623:36

Current date and time
Zulu (UTC)  19-Dec-2018 10:08:22
Local (UTC-6)  19-Dec-2018 04:08:22
 
METAR
KIER 
26nm SW 
190955Z AUTO 00000KT 1/4SM FG OVC003 06/06 A2998 RMK AO2 T00630063
KRSN 
33nm N 
190955Z AUTO 00000KT 1/4SM FG OVC001 04/03 A3002 RMK AO2 T00400034
KAEX 
38nm S 
190953Z 00000KT 4SM BR CLR 05/04 A2994 RMK AO2 SLP145 T00500044
KESF 
39nm SE 
190953Z AUTO 04003KT 2 1/2SM BR CLR 03/03 A2996 RMK AO2 SLP144 T00330033
KAQV 
44nm SW 
190956Z AUTO 00000KT 4SM HZ OVC080 05/M01 A2993 RMK AO2 SLP138 T00501006 $
KMLU 
46nm NE 
190953Z AUTO 00000KT 1/4SM FG VV002 06/06 A3000 RMK AO2 SLP157 T00560056
TAF
KAEX 
38nm S 
190524Z 1906/2006 00000KT P6SM SCT150 FM190700 00000KT 3/4SM BR BKN150 FM190900 00000KT 1/2SM FG BKN008 FM191200 VRB03KT 3SM BR BKN045 TEMPO 1912/1915 1SM -SHRA BR OVC025 FM191700 VRB04KT 6SM -SHRA OVC020 PROB30 2000/2006 4SM -SHRA OVC004
KMLU 
46nm NE 
190550Z 1906/2006 00000KT 1/4SM FG VV002 TEMPO 1909/1913 1SM BR OVC005 FM191500 VRB04KT 4SM BR VCSH OVC007 FM191800 10003KT 5SM -SHRA BR OVC010
NOTAMs
Click for the latest NOTAMs
NOTAMs are issued by the DoD/FAA and will open in a separate window not controlled by AirNav.

 

 
 

Would you like to see your business listed on this page?

 If your business provides an interesting product or service to pilots, flight crews, aircraft, or users of the David G Joyce Airport, you should consider listing it here.  To start the listing process, click on the button below
 
Add a business
 

Other Pages about David G Joyce Airport

Update a link
 
Copyright © AirNav, LLC. All rights reserved. Privacy Policy  Contact